Simultaneous Nadir Overpasses (SNOs) Predictions

Prediction of SNOs between METOP-A and TERRA Satellite Orbit:

Table of predicted SNOs for the next 14.0 days since TLE Epoch: 9/17/2012
Index Date (METOP-A) Time (METOP-A) METOP-A Lat,Lon Date (TERRA) Time (TERRA) TERRA Lat,Lon Distance(km) Time Diff (sec)
1 09/18/2012 15:44:10 -81.32, 171.18 09/18/2012 15:44:22 -81.32, 171.10 1.43 12
2 09/18/2012 16:34:50 81.32, -21.06 09/18/2012 16:33:48 81.32, -21.16 1.66 62
3 09/21/2012 11:18:32 -81.31,-122.67 09/21/2012 11:18:35 -81.31,-122.59 1.40 3
4 09/21/2012 12:09:11 81.32, 45.43 09/21/2012 12:08:00 81.33, 45.50 1.68 71
5 09/24/2012 06:02:14 81.31, 136.32 09/24/2012 06:03:21 81.32, 136.42 1.95 67
6 09/24/2012 06:52:54 -81.32, -56.04 09/24/2012 06:52:48 -81.32, -55.98 1.10 6
7 09/27/2012 01:36:37 81.31,-157.42 09/27/2012 01:37:35 81.30,-157.44 0.80 58
8 09/27/2012 02:27:16 -81.32, 10.67 09/27/2012 02:27:01 -81.32, 10.56 1.79 15
9 09/29/2012 21:11:00 81.31, -91.07 09/29/2012 21:11:48 81.30, -90.99 1.49 48




NCC Satellite Simultaneous Nadir Overpasses (SNOs) Prediction Service
